JLY3101 SBRJ-SBSP

Flight info

Callsign JLY3101
Flight time N/A
Altitude 38000
Route NAXOP UZ45 IBDAL
Aircraft A319/M-SDE3FGHIRWY/LB1

Departure

Time 2026-05-04 00:35
Airport Santos Dumont Airport (SBRJ)

Arrival

Time N/A
Airport Congonhas–Deputado Freitas Nobre Airport (SBSP)
Time Latitude Longitude Altitude Speed Heading
2026-05-03 23:56 -22.91169 -43.16584 22 ft 0 kts 266°
2026-05-04 00:24 -22.91168 -43.16583 22 ft 1 kts 266°
2026-05-04 00:24 -22.91167 -43.16565 24 ft 3 kts 261°
2026-05-04 00:24 -22.91163 -43.16544 26 ft 3 kts 248°
2026-05-04 00:25 -22.91154 -43.16526 23 ft 3 kts 220°
2026-05-04 00:25 -22.91140 -43.16518 24 ft 2 kts 178°
2026-05-04 00:25 -22.91134 -43.16518 23 ft 0 kts 177°
2026-05-04 00:29 -22.91136 -43.16518 23 ft 1 kts 177°
2026-05-04 00:30 -22.91150 -43.16517 25 ft 4 kts 178°
2026-05-04 00:30 -22.91180 -43.16515 22 ft 3 kts 176°
2026-05-04 00:30 -22.91210 -43.16513 22 ft 7 kts 176°
2026-05-04 00:30 -22.91262 -43.16510 23 ft 6 kts 176°
2026-05-04 00:31 -22.91306 -43.16507 23 ft 8 kts 177°
2026-05-04 00:31 -22.91328 -43.16506 22 ft 2 kts 176°
2026-05-04 00:31 -22.91340 -43.16505 25 ft 2 kts 176°
2026-05-04 00:31 -22.91364 -43.16503 23 ft 5 kts 176°
2026-05-04 00:32 -22.91400 -43.16497 22 ft 6 kts 161°
2026-05-04 00:32 -22.91434 -43.16469 22 ft 4 kts 135°
2026-05-04 00:32 -22.91446 -43.16457 22 ft 3 kts 136°
2026-05-04 00:32 -22.91464 -43.16438 22 ft 4 kts 136°
2026-05-04 00:33 -22.91474 -43.16427 22 ft 2 kts 136°
2026-05-04 00:33 -22.91565 -43.16336 20 ft 13 kts 136°
2026-05-04 00:33 -22.91632 -43.16263 20 ft 14 kts 135°
2026-05-04 00:34 -22.91628 -43.16245 20 ft 4 kts 14°
2026-05-04 00:34 -22.91571 -43.16248 20 ft 38 kts 356°
2026-05-04 00:34 -22.90971 -43.16302 26 ft 121 kts 350°
2026-05-04 00:34 -22.90103 -43.16433 116 ft 128 kts 355°
2026-05-04 00:35 -22.89211 -43.16628 269 ft 133 kts 350°
2026-05-04 00:35 -22.88317 -43.16913 475 ft 134 kts 345°
2026-05-04 00:35 -22.87451 -43.17286 707 ft 134 kts 339°
2026-05-04 00:35 -22.86609 -43.17741 905 ft 137 kts 327°
2026-05-04 00:36 -22.85668 -43.18104 978 ft 151 kts 345°
2026-05-04 00:36 -22.84582 -43.18145 1103 ft 162 kts
2026-05-04 00:36 -22.83516 -43.17772 1395 ft 158 kts 26°
2026-05-04 00:36 -22.82899 -43.16891 1796 ft 141 kts 87°
2026-05-04 00:37 -22.82816 -43.15824 1977 ft 152 kts 94°
2026-05-04 00:37 -22.82766 -43.14601 2010 ft 173 kts 92°
2026-05-04 00:37 -22.82688 -43.13219 2010 ft 193 kts 90°
2026-05-04 00:37 -22.82568 -43.11697 2033 ft 209 kts 88°
2026-05-04 00:38 -22.82407 -43.10131 2334 ft 209 kts 86°
2026-05-04 00:38 -22.82221 -43.08569 2639 ft 209 kts 86°
2026-05-04 00:38 -22.82015 -43.07006 2984 ft 210 kts 85°
2026-05-04 00:38 -22.81799 -43.05438 3341 ft 211 kts 85°
2026-05-04 00:39 -22.81580 -43.03867 3756 ft 212 kts 85°
2026-05-04 00:39 -22.81353 -43.02281 4137 ft 215 kts 85°
2026-05-04 00:39 -22.81134 -43.00676 4213 ft 214 kts 85°
2026-05-04 00:39 -22.80928 -42.99079 4213 ft 214 kts 85°
2026-05-04 00:40 -22.80716 -42.97483 4223 ft 214 kts 85°
2026-05-04 00:40 -22.80343 -42.95921 4221 ft 217 kts 69°
2026-05-04 00:40 -22.79492 -42.94570 4222 ft 220 kts 47°
2026-05-04 00:40 -22.78233 -42.93632 4221 ft 222 kts 25°
2026-05-04 00:41 -22.76731 -42.93240 4227 ft 224 kts
2026-05-04 00:41 -22.75200 -42.93439 4224 ft 222 kts 342°
2026-05-04 00:41 -22.73794 -42.94075 4231 ft 222 kts 336°
2026-05-04 00:41 -22.72379 -42.94750 4230 ft 222 kts 337°
2026-05-04 00:42 -22.70882 -42.95054 4229 ft 221 kts
2026-05-04 00:42 -22.69466 -42.94491 4229 ft 218 kts 39°
2026-05-04 00:42 -22.68522 -42.93241 4229 ft 215 kts 69°
2026-05-04 00:42 -22.68287 -42.91679 4230 ft 211 kts 99°
2026-05-04 00:43 -22.68780 -42.90216 4227 ft 207 kts 128°
2026-05-04 00:43 -22.69848 -42.89204 4229 ft 205 kts 154°
2026-05-04 00:43 -22.71144 -42.88553 4229 ft 206 kts 157°
2026-05-04 00:43 -22.72454 -42.87929 4225 ft 205 kts 158°
2026-05-04 00:44 -22.73765 -42.87313 4229 ft 206 kts 158°
2026-05-04 00:44 -22.75082 -42.86704 4228 ft 206 kts 158°
2026-05-04 00:44 -22.76443 -42.86252 4227 ft 205 kts 176°
2026-05-04 00:44 -22.77843 -42.86466 4228 ft 206 kts 202°
2026-05-04 00:45 -22.78992 -42.87380 4224 ft 208 kts 230°
2026-05-04 00:45 -22.79178 -42.87659 4221 ft 209 kts 237°
2026-05-04 00:45 -22.79624 -42.89154 4224 ft 213 kts 266°
2026-05-04 00:45 -22.79314 -42.90729 4221 ft 218 kts 297°
2026-05-04 00:46 -22.78293 -42.91937 4216 ft 222 kts 328°
2026-05-04 00:46 -22.76895 -42.92652 4225 ft 223 kts 336°
2026-05-04 00:46 -22.75481 -42.93325 4228 ft 222 kts 336°
2026-05-04 00:46 -22.74069 -42.93995 4224 ft 222 kts 336°
2026-05-04 00:47 -22.72655 -42.94664 4235 ft 222 kts 336°
2026-05-04 00:47 -22.71176 -42.95085 4223 ft 221 kts
2026-05-04 00:47 -22.69715 -42.94663 4230 ft 219 kts 33°
2026-05-04 00:47 -22.68661 -42.93517 4231 ft 216 kts 64°
2026-05-04 00:48 -22.68279 -42.91980 4229 ft 211 kts 93°
2026-05-04 00:48 -22.68633 -42.90472 4223 ft 208 kts 122°
2026-05-04 00:48 -22.69608 -42.89351 4228 ft 205 kts 150°
2026-05-04 00:48 -22.70891 -42.88673 4225 ft 205 kts 157°
2026-05-04 00:49 -22.72198 -42.88045 4229 ft 205 kts 158°
2026-05-04 00:49 -22.73511 -42.87430 4232 ft 206 kts 158°
2026-05-04 00:49 -22.74831 -42.86824 4228 ft 206 kts 158°
2026-05-04 00:49 -22.76174 -42.86291 4225 ft 206 kts 169°
2026-05-04 00:50 -22.77571 -42.86445 4228 ft 206 kts 204°
2026-05-04 00:50 -22.78637 -42.87464 4223 ft 209 kts 237°
2026-05-04 00:50 -22.79285 -42.88880 4218 ft 211 kts 245°
2026-05-04 00:50 -22.79843 -42.90354 4219 ft 212 kts 246°
2026-05-04 00:51 -22.80382 -42.91838 4214 ft 212 kts 246°
2026-05-04 00:51 -22.80915 -42.93320 4267 ft 210 kts 246°
2026-05-04 00:51 -22.81460 -42.94801 4446 ft 213 kts 246°
2026-05-04 00:51 -22.82008 -42.96292 4511 ft 213 kts 246°
2026-05-04 00:52 -22.82630 -42.97737 4524 ft 211 kts 238°
2026-05-04 00:52 -22.83407 -42.99101 4525 ft 219 kts 236°
2026-05-04 00:52 -22.84239 -43.00524 4516 ft 222 kts 236°
2026-05-04 00:52 -22.85056 -43.01943 4516 ft 221 kts 236°
2026-05-04 00:53 -22.85867 -43.03363 4521 ft 222 kts 237°
2026-05-04 00:53 -22.86469 -43.04897 4543 ft 224 kts 262°
2026-05-04 00:53 -22.86252 -43.06545 4726 ft 229 kts 293°
2026-05-04 00:53 -22.85247 -43.07917 4880 ft 234 kts 320°
2026-05-04 00:54 -22.83926 -43.08950 4913 ft 234 kts 326°
2026-05-04 00:54 -22.82565 -43.09921 4917 ft 234 kts 327°
2026-05-04 00:54 -22.81216 -43.10868 4918 ft 234 kts 327°
2026-05-04 00:54 -22.79849 -43.11829 4921 ft 234 kts 327°
2026-05-04 00:55 -22.78924 -43.12479 4925 ft 234 kts 327°
2026-05-04 00:55 -22.77112 -43.13750 4912 ft 234 kts 327°
2026-05-04 00:55 -22.75743 -43.14709 4914 ft 234 kts 326°
2026-05-04 00:55 -22.74379 -43.15674 4912 ft 234 kts 326°
2026-05-04 00:56 -22.73457 -43.16328 4912 ft 235 kts 326°
2026-05-04 00:56 -22.72095 -43.17296 4911 ft 234 kts 326°
2026-05-04 00:56 -22.70309 -43.18603 4911 ft 234 kts 324°
2026-05-04 00:56 -22.69362 -43.19203 4907 ft 234 kts 338°
2026-05-04 00:57 -22.67802 -43.19718 4918 ft 235 kts 346°
2026-05-04 00:57 -22.66210 -43.20158 4917 ft 237 kts 346°
2026-05-04 00:57 -22.64613 -43.20596 4920 ft 237 kts 346°
2026-05-04 00:57 -22.63025 -43.21027 4922 ft 232 kts 347°
2026-05-04 00:58 -22.61503 -43.21442 4911 ft 224 kts 346°
2026-05-04 00:58 -22.60093 -43.22030 4905 ft 207 kts 321°
2026-05-04 00:58 -22.59274 -43.23244 4917 ft 199 kts 291°
2026-05-04 00:58 -22.58807 -43.24621 4917 ft 195 kts 287°
2026-05-04 00:59 -22.58381 -43.25999 4917 ft 191 kts 286°
2026-05-04 00:59 -22.57969 -43.27362 4919 ft 191 kts 284°
2026-05-04 00:59 -22.57907 -43.28769 4919 ft 187 kts 253°
2026-05-04 00:59 -22.58434 -43.30037 4926 ft 184 kts 237°
2026-05-04 01:00 -22.59091 -43.31225 4921 ft 184 kts 236°
2026-05-04 01:00 -22.59750 -43.32413 4922 ft 184 kts 236°
2026-05-04 01:00 -22.60409 -43.33607 4924 ft 185 kts 236°
2026-05-04 01:00 -22.61065 -43.34803 4928 ft 186 kts 236°
2026-05-04 01:01 -22.61709 -43.35993 4958 ft 178 kts 236°
2026-05-04 01:01 -22.62334 -43.37130 4926 ft 174 kts 236°
2026-05-04 01:01 -22.62954 -43.38241 4913 ft 171 kts 236°
2026-05-04 01:01 -22.63800 -43.39080 4761 ft 165 kts 200°
2026-05-04 01:02 -22.64923 -43.39290 4586 ft 166 kts 188°
2026-05-04 01:02 -22.66048 -43.39546 4364 ft 165 kts 192°
2026-05-04 01:02 -22.67160 -43.39842 4114 ft 164 kts 192°
2026-05-04 01:02 -22.68265 -43.40140 3868 ft 163 kts 192°
2026-05-04 01:03 -22.69368 -43.40432 3634 ft 163 kts 192°
2026-05-04 01:03 -22.70488 -43.40621 3345 ft 165 kts 177°
2026-05-04 01:03 -22.71588 -43.40324 3126 ft 163 kts 154°
2026-05-04 01:03 -22.72478 -43.39574 2926 ft 163 kts 131°
2026-05-04 01:04 -22.73143 -43.38588 2723 ft 160 kts 128°
2026-05-04 01:04 -22.73787 -43.37617 2500 ft 158 kts 128°
2026-05-04 01:04 -22.74431 -43.36648 2295 ft 158 kts 127°
2026-05-04 01:04 -22.75071 -43.35682 2093 ft 159 kts 127°
2026-05-04 01:05 -22.75718 -43.34707 1875 ft 159 kts 127°
2026-05-04 01:05 -22.76355 -43.33747 1677 ft 153 kts 127°
2026-05-04 01:05 -22.76949 -43.32851 1469 ft 140 kts 127°
2026-05-04 01:05 -22.77496 -43.32023 1287 ft 132 kts 127°
2026-05-04 01:06 -22.78022 -43.31226 1122 ft 129 kts 127°
2026-05-04 01:06 -22.78544 -43.30441 961 ft 128 kts 127°
2026-05-04 01:06 -22.79062 -43.29659 798 ft 128 kts 124°
2026-05-04 01:06 -22.79573 -43.28867 617 ft 129 kts 126°
2026-05-04 01:07 -22.80100 -43.28080 431 ft 129 kts 125°
2026-05-04 01:07 -22.80620 -43.27283 265 ft 130 kts 126°
2026-05-04 01:07 -22.81154 -43.26490 127 ft 131 kts 125°
2026-05-04 01:07 -22.81682 -43.25713 25 ft 118 kts 123°
2026-05-04 01:08 -22.82005 -43.25221 27 ft 54 kts 125°
2026-05-04 01:08 -22.82048 -43.25060 26 ft 15 kts 80°
2026-05-04 01:08 -22.82046 -43.24963 23 ft 11 kts 91°
2026-05-04 01:08 -22.82017 -43.24927 23 ft 6 kts 341°
2026-05-04 01:09 -22.81984 -43.24978 24 ft 11 kts 304°
2026-05-04 01:09 -22.81930 -43.25059 27 ft 15 kts 307°
2026-05-04 01:09 -22.81859 -43.25165 25 ft 20 kts 305°
2026-05-04 01:09 -22.81790 -43.25256 23 ft 12 kts 331°
2026-05-04 01:10 -22.81723 -43.25224 23 ft 12 kts 35°
2026-05-04 01:10 -22.81637 -43.25158 22 ft 19 kts 34°
2026-05-04 01:10 -22.81535 -43.25079 22 ft 15 kts 36°
2026-05-04 01:10 -22.81459 -43.25049 24 ft 10 kts 356°
2026-05-04 01:11 -22.81400 -43.25058 22 ft 7 kts 348°
2026-05-04 01:11 -22.81365 -43.25073 22 ft 5 kts 333°
2026-05-04 01:11 -22.81343 -43.25082 23 ft 2 kts 346°
2026-05-04 01:11 -22.81319 -43.25084 22 ft 6 kts 356°
2026-05-04 01:12 -22.81283 -43.25085 24 ft 4 kts 359°
2026-05-04 01:12 -22.81270 -43.25085 22 ft 0 kts 359°